Location: Days
(41.3591°N, 106.7339°W)
Time: 05:33:15
(UTC+00:00)

First-Move - Pass Details

Date: 04 July 2022
Orbit: 572 x 658 km, 97.6° (Epoch: 11 August)

Event Time Altitude Azimuth Distance (km) Brightness Sun altitude
Rises 10:01:43 0° 31° (NNE) 2,968 ? -14.6°
Reaches altitude 10° 10:04:43 10° 53° (NE) 2,064 ? -14.3°
Maximum altitude 10:07:32 16° 92° (E) 1,686 ? -13.9°
Drops below altitude 10° 10:10:22 10° 130° (SE) 2,067 ? -13.6°
Sets 10:13:21 0° 152° (SSE) 2,975 ? -13.2°
